Content
SEND FEEDBACK

Daily
Averages
Monthly
Summary
United States of America

EAST SAINT LOUIS, ILLINOIS


Home > North America > United States > Illinois
Elevation: 466 feet     Latitude: 38 37N     Longitude: 090 12W

WEATHER
 
SELECT A DAY
Number of Records: 190,651;   Date Range: 1/1/95 - 12/16/14
 
SHARE

PRINT THIS DATA

[ ← Previous Day ]
WEATHER ALMANAC - MARCH 14, 2013
[ Next Day → ]
[ °C ]   °F
Weather ElementAverageHighLow
Temperature36.9 °F48.9 °F (4:53 pm)25 °F (1:53 am)
Dewpoint26.2 °F33.1 °F (6:53 pm)19.9 °F (2:53 am)
Humidity66.5 %88 % (5:53 am)46 % (4:53 pm)
Barometer30.26 in30.41 in (1:53 am)30.12 in (9:53 pm)
Wind Speed5.9 mph12.7 mph (12:53 pm)
Wind Gust20.7 mph (12:53 pm)
Weather ElementAverage
Visibility10 mi
Wind DirectionESE (109.2 °)

Weather ElementTotal
Precipitation---
Heating Degree Days28.1 (Base 65)
Averaged from 24 records on March 14, 2013
WEATHER CONDITIONS BREAKOUT
WIND DIRECTION BREAKOUT
WEATHER BY HOUR - MARCH 14, 2013
[ °C ]   °F
Local TimeTemperatureDewpointHumidityBarometerVisibilityWind DirectionWind SpeedGust SpeedPrecipitationEventsConditions
1:53 AM25.0 °F21.0 °F85 %30.41 in10.0 miCalmClear
2:53 AM25.0 °F19.9 °F81 %30.41 in10.0 miCalmClear
3:53 AM25.0 °F21.0 °F85 %30.38 in10.0 miCalmClear
4:53 AM25.0 °F21.0 °F85 %30.38 in10.0 miCalmClear
5:53 AM26.1 °F23.0 °F88 %30.38 in10.0 miCalmOvercast
6:53 AM28.9 °F23.0 °F78 %30.37 in10.0 miCalmOvercast
7:53 AM32.0 °F23.0 °F69 %30.36 in10.0 miSSE (150°)3.5 mphOvercast
8:53 AM34.0 °F23.0 °F64 %30.36 in10.0 miSSE (160°)5.8 mphOvercast
9:53 AM36.0 °F23.0 °F59 %30.36 in10.0 miSSE (150°)4.6 mphOvercast
10:53 AM37.9 °F23.0 °F55 %30.34 in10.0 miSouth (170°)5.8 mphOvercast
11:36 AM35.6 °F21.2 °F56 %30.31 in10.0 miSSE (160°)9.2 mph0.00 inSnowLight Freezing Drizzle
11:53 AM37.0 °F25.0 °F62 %30.30 in10.0 miSE (140°)8.1 mph0.00 inOvercast
12:53 PM39.9 °F27.0 °F60 %30.26 in10.0 miSSE (160°)12.7 mph20.7 mphMostly Cloudy
1:53 PM43.0 °F26.1 °F51 %30.22 in10.0 miSouth (170°)11.5 mphScattered Clouds
2:53 PM45.0 °F28.9 °F53 %30.19 in10.0 miSouth (180°)9.2 mphMostly Cloudy
3:53 PM46.9 °F28.9 °F50 %30.16 in10.0 miSouth (170°)11.5 mph19.6 mphMostly Cloudy
4:53 PM48.9 °F28.9 °F46 %30.14 in10.0 miSouth (190°)9.2 mph19.6 mphClear
5:53 PM48.0 °F32.0 °F54 %30.13 in10.0 miSE (140°)9.2 mphClear
6:53 PM45.0 °F33.1 °F63 %30.13 in10.0 miSE (130°)8.1 mphClear
7:53 PM43.0 °F33.1 °F68 %30.13 in10.0 miESE (120°)6.9 mphClear
8:53 PM42.1 °F32.0 °F67 %30.13 in10.0 miSE (130°)9.2 mphClear
9:53 PM41.0 °F32.0 °F70 %30.12 in10.0 miSSE (150°)9.2 mphClear
10:53 PM39.0 °F30.0 °F70 %30.12 in10.0 miSSE (150°)8.1 mphClear
11:53 PM36.0 °F28.9 °F76 %30.12 in10.0 miCalmClear
Hourly data recorded from KCPS, located miles away from East Saint Louis, Illinois







STORIES FROM OUR PARTNERS